Volver al catálogo

FENGYUN 1C DEB

ActivoLEO
NORAD 31788·DEBRIS·🇨🇳 China

Lanzado May 10, 1999 desde Taiyuan Satellite Launch Center

Loading…

Próximos Pases (próximas 24 horas)

TLE

ActualizadoSource: Space-Track

Época: Sep 13, 2026, 09:14 UTC

1 31788U 99025CGP 26256.38490589  .00001532  00000-0  13964-2 0  9995
2 31788 102.5527 113.8364 0458789 201.6227 335.8229 13.46472801942999

Sigue FENGYUN 1C DEB en tiempo real con AllMySat

Download on the App Store